Regional Weather Roundup
Issued by NWS

Home | Current Version | Previous Version | Text Only | Print | Product List | Glossary Off
Versions: 1 2 3 4 5 6 7 8 9 10 11 12 13 14 15 16 17 18 19 20 21 22 23 24 25 26 27 28 29 30 31 32 33 34 35 36 37 38 39 40 41 42 43 44 45 46 47 48 49 50

000
ASUS45 KPSR 250310
RWRAZ

ARIZONA REGIONAL HOURLY WEATHER ROUNDUP
NATIONAL WEATHER SERVICE PHOENIX AZ
800 PM MST THU JUL 24 2014

NOTE: FAIR INDICATES FEW OR NO CLOUDS BELOW 12,000 FEET WITH NO
SIGNIFICANT WEATHER AND/OR OBSTRUCTIONS TO VISIBILITY.

AZZ001>003-036-250400-
NORTHWEST ARIZONA

CITY           SKY/WX    TMP DP  RH WIND       PRES   REMARKS
BULLHEAD CITY  MOCLDY   108  54  16 SE17      29.66R HX 106
KINGMAN        MOCLDY    90  53  28 SE25      29.95R
$$

AZZ004>008-015-016-018-250400-
NORTH CENTRAL ARIZONA

CITY           SKY/WX    TMP DP  RH WIND       PRES   REMARKS
GRAND CANYON   CLOUDY    66  56  70 E5        30.28S HAZE
WILLIAMS       MOCLDY    64  57  77 CALM      30.36R
PRESCOTT       MOCLDY    71  58  63 S6        30.15R
FLAGSTAFF      MOCLDY    63  56  78 CALM      30.32R
PAYSON         PTCLDY    84  48  28 W8        30.15R
PAGE           CLOUDY    91  48  22 S14G25    30.01R
$$

AZZ009>014-017-250400-
NORTHEAST ARIZONA

CITY           SKY/WX    TMP DP  RH WIND       PRES   REMARKS
WINSLOW        MOCLDY    82  52  35 CALM      30.13R
SAINT JOHNS    CLOUDY    85  42  22 S12       30.16R
WINDOW ROCK    MOCLDY    77  48  35 N16       30.28R
SHOW LOW       MOCLDY    79  39  24 SW7       30.28R
$$

AZZ023-250400-
GREATER PHOENIX AREA

CITY           SKY/WX    TMP DP  RH WIND       PRES   REMARKS
PHOENIX        MOCLDY   109  40   9 S3        29.71R HX 103
BUCKEYE          N/A     99  59  26 SW12      29.75R
GLENDALE       PTCLDY   106  57  20 S14       29.74R HX 105
LUKE AFB       NOT AVBL
DEER VALLEY    PTCLDY   106  38   9 S3        29.75R HX 100
SCOTTSDALE     PTCLDY   105  47  14 CALM      29.77R HX 101
MESA-FALCON    PTCLDY   106  41  11 SW7       29.74R HX 100
MESA-GATEWAY   PTCLDY   104  39  11 SW5       29.76R
CHANDLER       PTCLDY   106  43  11 S6        29.73R HX 101
$$

AZZ027-028-250400-
SOUTHWEST MARICOPA COUNTY AND PINAL COUNTY

CITY           SKY/WX    TMP DP  RH WIND       PRES   REMARKS
CASA GRANDE    CLEAR    100  55  22 W6        29.78R
GILA BEND      MOCLDY   100  59  25 S10       29.75R HX 100
$$

AZZ503-504-507>509-250400-
SOUTHEAST ARIZONA

CITY           SKY/WX    TMP DP  RH WIND       PRES   REMARKS
TUCSON         PTCLDY    96  57  27 SW13G23   29.91R
DAVIS-MONTHAN  PTCLDY    95  59  30 SW16      29.90R
NOGALES        LGT RAIN  79  65  62 S9        30.09R
SIERRA VISTA   MOCLDY    90  46  22 S3        30.10R
DOUGLAS        PTCLDY    91  46  21 E5        30.05R
SAFFORD        CLEAR     94  43  17 S5        29.94R
$$

AZZ020-021-025-026-031-250400-
SOUTHWEST ARIZONA

CITY           SKY/WX    TMP DP  RH WIND       PRES   REMARKS
YUMA           CLOUDY   103  52  18 S12       29.67R HX 100
$$

CAZ031-033-041-043-047-048-061-250400-
SOUTHERN CALIFORNIA

CITY           SKY/WX    TMP DP  RH WIND       PRES   REMARKS
DOWNTOWN L.A.  CLEAR     77  59  53 SW3       29.74R
L.A. AIRPORT   PTCLDY    71  62  73 W8        29.75S
SAN DIEGO      PTCLDY    74  66  76 NW3       29.80R
BURBANK        CLEAR     88  53  30 SE9       29.75R
ONTARIO        PTCLDY    91  48  22 SW10      29.77R
RIVERSIDE      CLEAR     90  47  22 W9        29.77R
PALM SPRINGS   CLEAR    111  43  10 E8        29.66R HX 105
EL CENTRO NAS  MOCLDY   104  54  19 SE15      29.62R HX 102
IMPERIAL       MOCLDY   108  49  14 SE18      29.61R HX 104
BLYTHE         MOCLDY   111  46  11 S6        29.64R HX 106
NEEDLES        PTCLDY   106  55  18 SE16G23   29.70R HX 105
$$

NVZ020-UTZ003-250400-
SOUTHERN NEVADA-UTAH

CITY           SKY/WX    TMP DP  RH WIND       PRES   REMARKS
LAS VEGAS      PTCLDY   105  29   7 SW15      29.73R
SALT LAKE CITY MOCLDY    87  33  14 NW8       29.94S
$$

NMZ009-TXZ055-250400-
NEW MEXICO-WEST TEXAS

CITY           SKY/WX    TMP DP  RH WIND       PRES   REMARKS
ALBUQUERQUE    PTCLDY    86  41  20 S9        30.17R
EL PASO        PTCLDY    91  47  21 SE7       30.05R
$$


........................KEY........................
SKY/WX - SKY CONDITION/WEATHER
TMP    - TEMPERATURE IN FAHRENHEIT
DP     - DEW POINT IN FAHRENHEIT
RH     - RELATIVE HUMIDITY IN PERCENT
WIND   - DIRECTION AND SPEED IN MILES PER HOUR (MPH)
VRB    - VARIABLE WIND DIRECTION
PRES   - MEAN SEA LEVEL PRESSURE IN INCHES OF MERCURY
         F - FALLING PRESSURE   R - RISING PRESSURE
         S - STEADY PRESSURE
VSB    - VISIBILITY IN MILES
HX     - HEAT INDEX IN FAHRENHEIT
WCI    - WIND CHILL INDEX IN FAHRENHEIT
TC     - TEMPERATURE IN CELSIUS WHICH IS ALSO KNOWN AS
         TEMPERATURE IN CENTIGRADE
AFB    - AIR FORCE BASE
         LUKE AFB IS LUKE AIR FORCE BASE
         DAVIS-MONTHAN IS DAVIS-MONTHAN AIR FORCE BASE
NAS    - NAVAL AIR STATION
         EL CENTRO NAS IS EL CENTRO NAVAL AIR STATION
N/A    - NOT AVAILABLE


USA.gov is the U.S. government's official web portal to all federal, state and local government web resources and services.